User: anonymous   Login
Location: Unspecified
(0.0000°N, 0.0000°E)
Time: 19:34:43
(UTC+00:00)
Language:

SEEDS - Orbit

View from above orbital plane
View from above orbital plane
View from above satellite
View from above satellite

Ground track
Ground track

The orbit data is extracted from the following two-line orbital elements,

1 32791U 08021J   19231.51979068  .00000077  00000-0  13167-4 0  9990
2 32791  97.5291 234.3586 0014343  37.7994 322.4230 14.90851440613329
Epoch (UTC): 19 August 2019 12:28:29
Eccentricity: 0.0014343
inclination: 97.5291°
perigee height: 585 km
apogee height: 605 km
right ascension of ascending node: 234.3586°
argument of perigee: 37.7994°
revolutions per day: 14.90851440
mean anomaly at epoch: 322.4230°
orbit number at epoch: 61332

The dashed part of the orbit path shows where the satellite is in the earth's shadow,  

DLR